Last updated on April 5, 2018, 12:15 a.m. UTC
1 42701U 98067LJ 18094.35496906 .00017550 00000-0 16918-3 0 9994 2 42701 51.6378 12.1859 0003072 344.8976 15.1928 15.66602023 50401
Satellite is not in orbit.